Simultaneous Nadir Overpasses (SNOs) Predictions

Prediction of SNOs between AURA and NPP Satellite Orbit:

Table of predicted SNOs for the next 14.0 days since TLE Epoch: 11/14/2014
Index Date (AURA) Time (AURA) Lat,Lon (AURA) SZA (AURA ) Date (NPP) Time (NPP) Lat,Lon (NPP) SZA (NPP ) Distance(km) Time Diff (sec)
1 11/16/2014 14:13:19 76.71,-149.81 113.45 11/16/2014 14:12:53 76.71,-149.90 113.50 2.30 26
2 11/16/2014 15:02:22 -77.85, 22.30 67.79 11/16/2014 15:03:12 -77.86, 22.41 67.86 2.71 50
3 11/19/2014 05:43:17 -67.44, 140.47 57.25 11/19/2014 05:42:03 -67.63, 139.46 56.92 47.82 74
4 11/19/2014 06:29:38 77.11, -32.49 113.69 11/19/2014 06:29:38 77.10, -32.57 113.71 2.20 0
5 11/19/2014 07:17:07 -81.35, 167.43 72.33 11/19/2014 07:18:21 -81.04, 168.01 72.54 35.78 74
6 11/21/2014 21:56:44 -76.87, -85.14 65.45 11/21/2014 21:55:53 -76.87, -85.05 65.42 2.21 51
7 11/21/2014 22:45:55 77.52, 85.03 113.86 11/21/2014 22:46:22 77.52, 85.02 113.83 0.30 27
8 11/24/2014 14:13:04 -77.04, 31.39 65.04 11/24/2014 14:12:42 -77.03, 31.36 65.02 0.59 22
9 11/24/2014 15:02:14 77.73,-158.20 114.21 11/24/2014 15:03:10 77.72,-158.30 114.18 2.51 56
10 11/27/2014 05:40:09 76.57, -21.99 115.99 11/27/2014 05:39:00 76.58, -21.98 116.05 0.45 69
11 11/27/2014 06:29:20 -77.37, 148.58 64.86 11/27/2014 06:29:28 -77.36, 148.52 64.86 1.58 8




NCC Satellite Simultaneous Nadir Overpasses (SNOs) Prediction Service
